[[{"header":{"parameterUnit":"m.s-1","parameterCategory":1,"la1":30.2991,"la2":30.254,"lo1":-89.0895,"lo2":-89.0444,"dy":0.0017,"dx":0.0017,"nx":28,"ny":28,"refTime":"2025-02-25T09:00:00:Z","depth":0,"parameterNumber":2,"parameterNumberName":"U-component_of_WINDS"},"data":[0,0,0,0,0,0,0,0,0,0,0,0,0,0,0,0,0,0,0,0,0,0,0,0,0,0,0,0,0,0,0,0,0,0,0,0,0,0,0,0,0,0,0,0,0,0,0,0,0,0,0,0,0,0,0,0,0,0,0.3686,0.3686,0,0.3701,0.3702,0.3702,0.3726,0.3726,0.3727,0.3727,0.3743,0.3743,0.3743,0,0,0,0,0,0,0,0,0,0,0,0,0,0.3676,0.3676,0.3686,0.3686,0.3686,0.3701,0.3702,0.3702,0.3726,0.3726,0.3727,0.3727,0.3743,0.3743,0.3743,0,0,0,0,0,0,0,0,0,0,0,0,0,0.3685,0.3676,0.3686,0.37,0.3701,0.3701,0.3702,0.3702,0.3726,0.3726,0.3727,0.3728,0.3743,0.3743,0.3743,0.373,0,0,0.3743,0.3743,0,0,0,0,0,0,0,0,0.3684,0.3685,0.3698,0.3699,0.3701,0.3712,0.3704,0.3711,0.3725,0.3716,0.3727,0.3728,0.3732,0.3733,0.3734,0.3731,0.3731,0.3743,0.3743,0.3743,0.3743,0,0,0,0,0,0,0,0.3684,0.3685,0.3692,0.3698,0.37,0.3705,0.3707,0.3705,0.372,0.3717,0.3719,0.3721,0.3733,0.3734,0.3735,0.3731,0.3743,0.3743,0.3743,0.3743,0.3718,0.3717,0,0,0,0,0,0,0.3681,0.3684,0.3691,0.3692,0.3694,0.3705,0.3707,0.3708,0.372,0.3723,0.372,0.3722,0.3734,0.3735,0.3736,0.3721,0.3743,0.3743,0.3743,0.3719,0.3718,0.3717,0,0,0,0,0,0,0.3681,0.3681,0.3691,0.3689,0.369,0.3704,0.3705,0.3708,0.3709,0.3723,0.3725,0.3719,0.3734,0.3736,0.3731,0.3722,0.3743,0.3743,0.3719,0.3718,0.3717,0.3693,0,0,0,0,0,0,0.368,0.3681,0.3677,0.3688,0.369,0.3686,0.3705,0.3708,0.3709,0.3712,0.3722,0.3724,0.3735,0.3731,0.3731,0.3723,0.3743,0.372,0.3719,0.3718,0.3695,0.3691,0.3688,0,0,0,0,0,0.368,0.3669,0.3676,0.3677,0.3685,0.3686,0.3687,0.3699,0.3709,0.3704,0.3712,0.3724,0.3723,0.373,0.3731,0.3722,0.3721,0.3719,0.3718,0.3696,0.3692,0.3688,0,0,0,0,0,0,0.3656,0.3671,0.3679,0.3672,0.3677,0.369,0.3684,0.3695,0.3698,0.3699,0.3715,0.3717,0.3711,0.3716,0.3724,0.371,0.3724,0.3722,0.3707,0.3703,0.37,0.3699,0.3743,0,0,0,0,0,0.3649,0.3649,0.3662,0.3654,0.3657,0.367,0.3671,0.368,0.3686,0.3689,0.3697,0.3702,0.3703,0.3704,0.3705,0.3696,0.3698,0.369,0.3687,0.3684,0.3683,0.3678,0.3674,0.3712,0.3712,0.3712,0,0,0.3637,0.3645,0.3644,0.365,0.3655,0.3654,0.3672,0.367,0.3669,0.3688,0.3685,0.3691,0.3698,0.3691,0.3688,0.3695,0.3673,0.3682,0.368,0.368,0.3676,0.3672,0.3669,0.3711,0.3711,0.3711,0,0,0.3613,0.3619,0.3613,0.3618,0.3626,0.3635,0.3634,0.3645,0.3649,0.3646,0.366,0.366,0.3661,0.3666,0.3668,0.3646,0.3656,0.3646,0.3629,0.3624,0.3621,0.3619,0.3611,0.3608,0.3644,0.3644,0.3644,0,0.3596,0.3595,0.3609,0.3606,0.3608,0.3626,0.362,0.3624,0.3632,0.3633,0.3641,0.3643,0.3649,0.3643,0.3638,0.3639,0.3638,0.3645,0.3621,0.3618,0.3616,0.3608,0.3605,0.3643,0.3643,0.3643,0.3643,0,0.3573,0.3573,0.3567,0.3574,0.3576,0.3572,0.3585,0.3585,0.3594,0.3602,0.3598,0.3606,0.3609,0.3609,0.3617,0.3604,0.3608,0.3618,0.3632,0.3611,0.3604,0.3601,0.3641,0.3641,0.3642,0.3642,0,0,0.3535,0.355,0.3547,0.3551,0.3561,0.3561,0.3557,0.3561,0.356,0.3565,0.3562,0.3563,0.3572,0.3575,0.3585,0.358,0.3562,0.3591,0.3591,0.3585,0.3547,0.3539,0.3536,0.3569,0.3569,0.3568,0.3546,0,0.3513,0.3507,0.352,0.3512,0.3511,0.3527,0.3524,0.353,0.3537,0.3538,0.3546,0.3546,0.3558,0.356,0.3557,0.3565,0.3554,0.3567,0.3566,0.3566,0.3564,0.3532,0.3524,0.3503,0.3544,0.3543,0.3543,0,0.3486,0.349,0.3482,0.3492,0.3492,0.3489,0.3493,0.3493,0.35,0.3506,0.3509,0.352,0.3517,0.353,0.3526,0.3534,0.3535,0.3539,0.3538,0.3539,0.3553,0.3531,0.3496,0.3493,0.3539,0.3539,0.354,0,0.3459,0.3461,0.3457,0.3459,0.3471,0.3469,0.3474,0.3481,0.3482,0.3486,0.3487,0.349,0.3492,0.3494,0.3505,0.3514,0.35,0.3514,0.3504,0.3504,0.35,0.35,0.3465,0.3501,0.3501,0.3501,0.3501,0,0.3433,0.3427,0.3445,0.3442,0.3435,0.345,0.3443,0.345,0.3456,0.3455,0.3469,0.3467,0.3483,0.3483,0.3492,0.3487,0.3488,0.3492,0.3494,0.349,0.349,0.3491,0.3492,0.35,0.3501,0.3501,0.3501,0,0.3401,0.3412,0.3408,0.342,0.3423,0.3418,0.3428,0.3426,0.3434,0.3432,0.3432,0.3445,0.3445,0.3457,0.346,0.3466,0.3458,0.3463,0.3455,0.3457,0.3446,0.3447,0.341,0.3406,0.3445,0.3444,0.3444,0,0.3383,0.3379,0.3391,0.3391,0.3395,0.3395,0.3396,0.341,0.3411,0.3418,0.3415,0.3417,0.3419,0.3419,0.3428,0.3431,0.3436,0.3423,0.3436,0.3433,0.3435,0.3435,0.3435,0.342,0.3419,0.3419,0.3419,0,0.3351,0.3357,0.3359,0.3362,0.3363,0.3367,0.3371,0.337,0.3385,0.3385,0.3386,0.3388,0.3391,0.3392,0.3397,0.3401,0.3412,0.3414,0.3412,0.3408,0.3404,0.3405,0.3447,0.3415,0.3415,0.3416,0.3416,0.3416,0.3326,0.3323,0.3331,0.3332,0.3336,0.334,0.3338,0.3346,0.3347,0.3351,0.3359,0.3358,0.3365,0.3372,0.3375,0.3375,0.3382,0.3379,0.3378,0.3377,0.3374,0.3404,0.3376,0.3376,0.3376,0.3376,0.3376,0,0.3295,0.33,0.3301,0.3306,0.3307,0.3318,0.3323,0.3323,0.3322,0.3327,0.3329,0.333,0.3331,0.3341,0.3343,0.3341,0.3346,0.3341,0.3341,0.3342,0.3368,0.337,0.3337,0.3337,0.3337,0.3337,0.3337,0.3337,0.3278,0.3274,0.328,0.3278,0.3284,0.3283,0.3285,0.3289,0.3293,0.3293,0.3294,0.3301,0.3308,0.3311,0.3312,0.3315,0.3315,0.3308,0.3313,0.3337,0.3341,0.3344,0.3346,0.3308,0.3308,0.3287,0.3287,0.3286]},{"header":{"parameterUnit":"m.s-1","parameterCategory":1,"la1":30.2991,"la2":30.254,"lo1":-89.0895,"lo2":-89.0444,"dy":0.0017,"dx":0.0017,"nx":28,"ny":28,"refTime":"2025-02-25T09:00:00:Z","depth":0,"parameterNumber":3,"parameterNumberName":"V-component_of_WINDS"},"data":[0,0,0,0,0,0,0,0,0,0,0,0,0,0,0,0,0,0,0,0,0,0,0,0,0,0,0,0,0,0,0,0,0,0,0,0,0,0,0,0,0,0,0,0,0,0,0,0,0,0,0,0,0,0,0,0,0,0,-0.7755,-0.7755,0,-0.7746,-0.7746,-0.7745,-0.7742,-0.7742,-0.7742,-0.7742,-0.7733,-0.7733,-0.7732,0,0,0,0,0,0,0,0,0,0,0,0,0,-0.7771,-0.7771,-0.7755,-0.7755,-0.7755,-0.7746,-0.7746,-0.7745,-0.7742,-0.7742,-0.7742,-0.7742,-0.7733,-0.7733,-0.7732,0,0,0,0,0,0,0,0,0,0,0,0,0,-0.7763,-0.777,-0.7755,-0.7752,-0.7751,-0.7746,-0.7746,-0.7745,-0.7742,-0.7742,-0.7742,-0.7742,-0.7733,-0.7733,-0.7732,-0.7729,0,0,-0.7731,-0.7731,0,0,0,0,0,0,0,0,-0.7763,-0.7762,-0.7752,-0.7752,-0.7751,-0.7745,-0.7748,-0.774,-0.7742,-0.7745,-0.7742,-0.7742,-0.7737,-0.7736,-0.7734,-0.7729,-0.7729,-0.7731,-0.7731,-0.7731,-0.7731,0,0,0,0,0,0,0,-0.7764,-0.7763,-0.7751,-0.7752,-0.7752,-0.7751,-0.775,-0.7746,-0.7741,-0.7745,-0.7745,-0.7744,-0.7737,-0.7735,-0.7734,-0.7728,-0.7731,-0.7731,-0.7731,-0.773,-0.7721,-0.7721,0,0,0,0,0,0,-0.7765,-0.7763,-0.7752,-0.7751,-0.7758,-0.7751,-0.775,-0.7747,-0.7741,-0.774,-0.7744,-0.7744,-0.7735,-0.7735,-0.7734,-0.773,-0.7731,-0.773,-0.773,-0.7721,-0.7721,-0.7721,0,0,0,0,0,0,-0.7765,-0.7764,-0.7752,-0.7757,-0.7755,-0.7751,-0.7748,-0.7747,-0.7745,-0.774,-0.7739,-0.7743,-0.7735,-0.7734,-0.7731,-0.773,-0.773,-0.773,-0.7721,-0.7721,-0.7721,-0.7723,0,0,0,0,0,0,-0.7766,-0.7764,-0.7762,-0.7757,-0.7755,-0.7748,-0.7748,-0.7747,-0.7744,-0.7744,-0.7739,-0.7738,-0.7735,-0.7731,-0.773,-0.773,-0.773,-0.7721,-0.7721,-0.7721,-0.7723,-0.7723,-0.7723,0,0,0,0,0,-0.7766,-0.7763,-0.7762,-0.7761,-0.7753,-0.7748,-0.7747,-0.7744,-0.7744,-0.7743,-0.774,-0.7738,-0.773,-0.7731,-0.773,-0.7729,-0.7721,-0.7721,-0.7721,-0.7723,-0.7723,-0.7723,0,0,0,0,0,0,-0.7768,-0.7762,-0.7761,-0.7756,-0.7753,-0.7748,-0.7746,-0.7744,-0.7741,-0.7741,-0.7737,-0.7736,-0.7733,-0.7731,-0.7731,-0.7726,-0.7726,-0.7726,-0.7728,-0.7728,-0.7728,-0.7728,-0.7729,0,0,0,0,0,-0.7768,-0.7765,-0.776,-0.7756,-0.7754,-0.775,-0.7748,-0.7746,-0.7743,-0.7741,-0.7738,-0.7735,-0.7732,-0.773,-0.7727,-0.7723,-0.7722,-0.7722,-0.7722,-0.7722,-0.7722,-0.7721,-0.7721,-0.7721,-0.7721,-0.7721,0,0,-0.7768,-0.7764,-0.7762,-0.7756,-0.7753,-0.775,-0.7749,-0.7746,-0.7743,-0.7741,-0.7737,-0.7735,-0.7731,-0.7728,-0.7726,-0.7726,-0.7722,-0.7722,-0.7722,-0.7722,-0.7721,-0.7721,-0.7721,-0.7721,-0.7721,-0.7721,0,0,-0.7766,-0.7763,-0.7759,-0.7757,-0.7752,-0.775,-0.7749,-0.7745,-0.7743,-0.7739,-0.7737,-0.7735,-0.773,-0.7727,-0.7725,-0.7724,-0.7723,-0.7723,-0.7723,-0.7722,-0.7722,-0.7722,-0.7722,-0.7722,-0.7723,-0.7723,-0.7723,0,-0.7766,-0.7761,-0.7758,-0.7755,-0.7752,-0.775,-0.7747,-0.7745,-0.774,-0.7739,-0.7738,-0.7732,-0.773,-0.7726,-0.7726,-0.7724,-0.7724,-0.7723,-0.7722,-0.7722,-0.7722,-0.7722,-0.7722,-0.7723,-0.7723,-0.7723,-0.7723,0,-0.7762,-0.7758,-0.7756,-0.7751,-0.7749,-0.7746,-0.7743,-0.7741,-0.774,-0.7738,-0.7735,-0.7732,-0.7728,-0.7727,-0.7726,-0.7724,-0.7724,-0.7723,-0.7722,-0.7722,-0.7722,-0.7722,-0.7723,-0.7723,-0.7723,-0.7723,0,0,-0.7759,-0.7754,-0.7753,-0.7752,-0.7747,-0.7745,-0.7742,-0.7739,-0.7737,-0.7735,-0.7733,-0.7729,-0.7728,-0.7726,-0.7725,-0.7724,-0.7723,-0.7723,-0.7723,-0.7723,-0.7721,-0.7722,-0.7721,-0.7723,-0.7722,-0.7722,-0.7722,0,-0.7757,-0.7751,-0.7749,-0.7745,-0.7742,-0.7741,-0.7739,-0.7736,-0.7735,-0.7732,-0.7731,-0.7728,-0.7728,-0.7726,-0.7725,-0.7723,-0.7723,-0.7724,-0.7721,-0.7721,-0.7721,-0.7721,-0.7721,-0.7721,-0.7721,-0.7721,-0.7721,0,-0.7752,-0.7749,-0.7745,-0.7742,-0.7741,-0.7739,-0.7736,-0.7734,-0.7732,-0.7731,-0.7729,-0.7728,-0.7725,-0.7726,-0.7723,-0.7723,-0.7723,-0.7722,-0.7722,-0.7721,-0.7721,-0.7721,-0.772,-0.772,-0.7721,-0.7721,-0.7721,0,-0.7751,-0.7747,-0.7744,-0.7742,-0.7739,-0.7737,-0.7736,-0.7733,-0.7732,-0.773,-0.7729,-0.7727,-0.7725,-0.7724,-0.7722,-0.7722,-0.772,-0.772,-0.7719,-0.7719,-0.7718,-0.7718,-0.7718,-0.7718,-0.7718,-0.7718,-0.7718,0,-0.7748,-0.7746,-0.7743,-0.7741,-0.7739,-0.7737,-0.7735,-0.7733,-0.7731,-0.7729,-0.7728,-0.7727,-0.7725,-0.7723,-0.7722,-0.772,-0.772,-0.7719,-0.7719,-0.7719,-0.7719,-0.7718,-0.7718,-0.7718,-0.7718,-0.7718,-0.7718,0,-0.7746,-0.7744,-0.7741,-0.7738,-0.7738,-0.7736,-0.7734,-0.7732,-0.7731,-0.7729,-0.7728,-0.7726,-0.7725,-0.7723,-0.7721,-0.772,-0.7718,-0.7718,-0.7719,-0.7719,-0.7718,-0.7718,-0.7717,-0.7717,-0.7717,-0.7717,-0.7717,0,-0.7744,-0.7742,-0.774,-0.7738,-0.7737,-0.7735,-0.7734,-0.7732,-0.7731,-0.7729,-0.7728,-0.7726,-0.7724,-0.7721,-0.772,-0.7718,-0.7718,-0.7718,-0.7718,-0.7718,-0.7718,-0.7718,-0.7718,-0.7717,-0.7717,-0.7717,-0.7717,0,-0.7741,-0.774,-0.7738,-0.7736,-0.7735,-0.7733,-0.7731,-0.773,-0.7729,-0.7728,-0.7726,-0.7725,-0.7723,-0.7721,-0.7719,-0.7718,-0.7718,-0.7718,-0.7717,-0.7717,-0.7718,-0.7718,-0.7719,-0.7717,-0.7717,-0.7717,-0.7717,-0.7717,-0.7739,-0.7737,-0.7736,-0.7734,-0.7732,-0.7731,-0.773,-0.7729,-0.7727,-0.7725,-0.7725,-0.7723,-0.7722,-0.7719,-0.7719,-0.7718,-0.7717,-0.7717,-0.7717,-0.7717,-0.7717,-0.7719,-0.7717,-0.7717,-0.7717,-0.7717,-0.7717,0,-0.7736,-0.7735,-0.7733,-0.7731,-0.773,-0.7729,-0.7728,-0.7727,-0.7725,-0.7724,-0.7723,-0.7721,-0.772,-0.7719,-0.7718,-0.7717,-0.7717,-0.7717,-0.7717,-0.7717,-0.7717,-0.7717,-0.7717,-0.7717,-0.7717,-0.7717,-0.7717,-0.7717,-0.7734,-0.7731,-0.7731,-0.7728,-0.7727,-0.7726,-0.7725,-0.7724,-0.7723,-0.7721,-0.772,-0.772,-0.7719,-0.7718,-0.7717,-0.7717,-0.7716,-0.7716,-0.7716,-0.7716,-0.7716,-0.7716,-0.7717,-0.7716,-0.7716,-0.7716,-0.7716,-0.7716]}]]